Location: Marengo
(51.4813°N, 109.7825°W)
Time: 00:00:34
(UTC+00:00)

Envisat - Pass Details

Date: 02 February 2022
Orbit: 764 x 765 km, 98.2° (Epoch: 22 May)

Event Time Altitude Azimuth Distance (km) Brightness Sun altitude
Rises 11:36:12 0° 20° (NNE) 3,244 6.6 -31.1°
Reaches altitude 10° 11:38:42 10° 29° (NNE) 2,313 5.9 -30.7°
Maximum altitude 11:43:23 36° 96° (E) 1,200 4.4 -30.0°
Drops below altitude 10° 11:48:03 10° 162° (SSE) 2,298 5.5 -29.2°
Sets 11:50:31 0° 171° (S) 3,220 6.2 -28.9°
